Location: White Ridge parking lot
(35.4984°N, 106.8413°W)
Time: 23:42:25
(UTC-06:00)

SRMSAT - Visible Passes

Search period start: 17 September 2019 00:00
Search period end: 27 September 2019 00:00
Orbit: 848 x 866 km, 20.0° (Epoch: 17 September)

Date Brightness Start Highest point End Pass type
(mag) Time Alt. Az. Time Alt. Az. Time Alt. Az.
17 Sep ? 20:36:53 10° SW 20:40:34 17° S 20:42:13 15° SSE visible
18 Sep ? 20:23:50 10° SW 20:27:31 17° S 20:30:03 13° SSE visible
19 Sep ? 20:10:49 10° SW 20:14:27 17° S 20:17:53 11° SSE visible
20 Sep ? 19:57:49 10° SW 20:01:23 16° S 20:04:56 10° SSE visible
21 Sep ? 19:44:51 10° SW 19:48:19 16° S 19:51:47 10° SSE visible
22 Sep ? 19:31:55 10° SW 19:35:15 15° S 19:38:34 10° SSE visible
